• In Deutschland
  • Länderverzeichnis
  • Für 7 Tage
  • Wassertemperatur
  • Satellitenkarten
  • Wetterkarte
  • Widgets
  • user-avatar
    Anmelden

    Stündliche Wetter Neuruppin

    Heute, 20 August, Montag

    Zeit Temperatur Niederschläge Wind Luftdruck Luftfeuchtigkeit
    00:00 +20°C° 0 mm 2 m/S 758 mmHg 65%
    01:00 +20°C° 0 mm 2 m/S 758 mmHg 65%
    02:00 +19°C° 0 mm 2 m/S 757 mmHg 69%
    03:00 +19°C° 0 mm 2 m/S 757 mmHg 73%
    04:00 +18°C° 0 mm 2 m/S 757 mmHg 77%
    05:00 +19°C° 0 mm 3 m/S 757 mmHg 76%
    06:00 +20°C° 0 mm 4 m/S 757 mmHg 74%
    07:00 +21°C° 0 mm 4 m/S 757 mmHg 74%
    08:00 +22°C° 0 mm 4 m/S 758 mmHg 71%
    09:00 +23°C° 0 mm 5 m/S 758 mmHg 67%
    10:00 +23°C° 0 mm 5 m/S 758 mmHg 64%
    11:00 +23°C° 0 mm 5 m/S 758 mmHg 65%
    12:00 +23°C° 0 mm 5 m/S 758 mmHg 65%
    13:00 +23°C° 0 mm 4 m/S 758 mmHg 66%
    14:00 +23°C° 0,1 mm 4 m/S 758 mmHg 67%
    15:00 +23°C° 0,1 mm 4 m/S 758 mmHg 67%
    16:00 +23°C° 0,1 mm 4 m/S 759 mmHg 68%
    17:00 +22°C° 0 mm 3 m/S 759 mmHg 69%
    18:00 +22°C° 0 mm 3 m/S 759 mmHg 71%
    19:00 +21°C° 0 mm 2 m/S 759 mmHg 72%
    20:00 +21°C° 0 mm 2 m/S 759 mmHg 73%
    21:00 +20°C° 0 mm 2 m/S 759 mmHg 74%
    22:00 +19°C° 0 mm 2 m/S 760 mmHg 75%
    23:00 +18°C° 0 mm 2 m/S 760 mmHg 77%

    Morgen, 21 August, Dienstag

    Zeit Temperatur Niederschläge Wind Luftdruck Luftfeuchtigkeit
    00:00 +17°C° 0 mm 2 m/S 760 mmHg 80%
    01:00 +16°C° 0 mm 2 m/S 760 mmHg 82%
    02:00 +15°C° 0 mm 2 m/S 761 mmHg 84%
    03:00 +14°C° 0 mm 2 m/S 761 mmHg 86%
    04:00 +14°C° 0 mm 2 m/S 761 mmHg 88%
    05:00 +14°C° 0 mm 2 m/S 761 mmHg 84%
    06:00 +15°C° 0 mm 2 m/S 761 mmHg 81%
    07:00 +16°C° 0 mm 2 m/S 762 mmHg 77%
    08:00 +17°C° 0 mm 2 m/S 762 mmHg 69%
    09:00 +19°C° 0 mm 2 m/S 762 mmHg 61%
    10:00 +21°C° 0 mm 2 m/S 762 mmHg 53%
    11:00 +23°C° 0 mm 2 m/S 762 mmHg 48%
    12:00 +24°C° 0 mm 2 m/S 762 mmHg 44%
    13:00 +25°C° 0 mm 2 m/S 762 mmHg 40%
    14:00 +25°C° 0 mm 2 m/S 761 mmHg 39%
    15:00 +25°C° 0 mm 1 m/S 761 mmHg 38%
    16:00 +26°C° 0 mm 1 m/S 761 mmHg 36%
    17:00 +24°C° 0 mm 1 m/S 761 mmHg 42%
    18:00 +23°C° 0 mm 1 m/S 761 mmHg 47%
    19:00 +21°C° 0 mm 1 m/S 761 mmHg 52%
    20:00 +19°C° 0 mm 2 m/S 761 mmHg 56%
    21:00 +18°C° 0 mm 2 m/S 761 mmHg 60%
    22:00 +17°C° 0 mm 2 m/S 762 mmHg 64%
    23:00 +16°C° 0 mm 2 m/S 762 mmHg 66%

    übermorgen, 22 August, Mittwoch

    Zeit Temperatur Niederschläge Wind Luftdruck Luftfeuchtigkeit
    00:00 +16°C° 0 mm 2 m/S 762 mmHg 68%
    01:00 +16°C° 0 mm 2 m/S 762 mmHg 70%
    02:00 +15°C° 0 mm 2 m/S 762 mmHg 71%
    03:00 +15°C° 0 mm 2 m/S 761 mmHg 72%
    04:00 +15°C° 0 mm 2 m/S 761 mmHg 73%
    05:00 +16°C° 0 mm 2 m/S 761 mmHg 71%
    06:00 +17°C° 0 mm 2 m/S 761 mmHg 68%
    07:00 +18°C° 0 mm 2 m/S 761 mmHg 65%
    08:00 +20°C° 0 mm 3 m/S 761 mmHg 58%
    09:00 +22°C° 0 mm 3 m/S 761 mmHg 50%
    10:00 +25°C° 0 mm 3 m/S 760 mmHg 43%
    11:00 +27°C° 0 mm 3 m/S 760 mmHg 40%
    12:00 +28°C° 0 mm 3 m/S 759 mmHg 37%
    13:00 +29°C° 0 mm 3 m/S 759 mmHg 34%
    14:00 +29°C° 0 mm 3 m/S 759 mmHg 34%
    15:00 +29°C° 0 mm 3 m/S 758 mmHg 34%
    16:00 +30°C° 0 mm 3 m/S 758 mmHg 34%
    17:00 +28°C° 0 mm 2 m/S 758 mmHg 39%
    18:00 +27°C° 0 mm 2 m/S 757 mmHg 45%
    19:00 +25°C° 0 mm 1 m/S 757 mmHg 50%
    20:00 +24°C° 0 mm 1 m/S 757 mmHg 52%
    21:00 +24°C° 0 mm 1 m/S 757 mmHg 53%
    22:00 +23°C° 0 mm 1 m/S 758 mmHg 55%
    23:00 +23°C° 0 mm 1 m/S 757 mmHg 57%

    23 August, Donnerstag

    Zeit Temperatur Niederschläge Wind Luftdruck Luftfeuchtigkeit
    00:00 +23°C° 0 mm 1 m/S 757 mmHg 60%
    01:00 +23°C° 0 mm 2 m/S 757 mmHg 63%
    02:00 +21°C° 0 mm 2 m/S 757 mmHg 67%
    03:00 +21°C° 0 mm 1 m/S 757 mmHg 72%
    04:00 +21°C° 0 mm 1 m/S 757 mmHg 76%
    05:00 +21°C° 0 mm 1 m/S 756 mmHg 75%
    06:00 +22°C° 0 mm 1 m/S 756 mmHg 74%
    07:00 +22°C° 0 mm 1 m/S 756 mmHg 73%
    08:00 +24°C° 0 mm 1 m/S 756 mmHg 68%
    09:00 +25°C° 0 mm 2 m/S 756 mmHg 62%
    10:00 +27°C° 0 mm 2 m/S 756 mmHg 56%
    11:00 +28°C° 0 mm 2 m/S 756 mmHg 53%
    12:00 +29°C° 0 mm 3 m/S 755 mmHg 51%
    13:00 +30°C° 0 mm 3 m/S 755 mmHg 48%
    14:00 +29°C° 0 mm 3 m/S 755 mmHg 48%
    15:00 +29°C° 0 mm 3 m/S 754 mmHg 48%
    16:00 +29°C° 0 mm 3 m/S 754 mmHg 48%
    17:00 +28°C° 0 mm 2 m/S 754 mmHg 53%
    18:00 +26°C° 0 mm 2 m/S 754 mmHg 57%
    19:00 +25°C° 0 mm 2 m/S 753 mmHg 62%
    20:00 +24°C° 0,1 mm 2 m/S 754 mmHg 68%
    21:00 +21°C° 0,1 mm 2 m/S 754 mmHg 74%
    22:00 +20°C° 0,1 mm 2 m/S 754 mmHg 81%
    23:00 +19°C° 0,1 mm 2 m/S 753 mmHg 85%

    24 August, Freitag

    Zeit Temperatur Niederschläge Wind Luftdruck Luftfeuchtigkeit
    00:00 +19°C° 0,1 mm 2 m/S 753 mmHg 88%
    01:00 +18°C° 0,1 mm 2 m/S 753 mmHg 92%
    02:00 +18°C° 0,1 mm 2 m/S 753 mmHg 92%
    03:00 +17°C° 0,1 mm 2 m/S 753 mmHg 93%
    04:00 +17°C° 0,1 mm 2 m/S 753 mmHg 93%
    05:00 +17°C° 0,1 mm 2 m/S 753 mmHg 90%
    06:00 +17°C° 0,1 mm 3 m/S 753 mmHg 88%
    07:00 +18°C° 0,1 mm 3 m/S 753 mmHg 85%
    08:00 +18°C° 0 mm 3 m/S 753 mmHg 76%
    09:00 +19°C° 0 mm 4 m/S 754 mmHg 67%
    10:00 +20°C° 0 mm 5 m/S 754 mmHg 58%
    11:00 +20°C° 0 mm 5 m/S 754 mmHg 58%
    12:00 +20°C° 0 mm 5 m/S 754 mmHg 57%
    13:00 +20°C° 0 mm 5 m/S 754 mmHg 56%
    14:00 +20°C° 0 mm 5 m/S 754 mmHg 53%
    15:00 +20°C° 0 mm 5 m/S 754 mmHg 49%
    16:00 +20°C° 0 mm 4 m/S 754 mmHg 46%
    17:00 +19°C° 0 mm 4 m/S 754 mmHg 47%
    18:00 +18°C° 0 mm 3 m/S 754 mmHg 49%
    19:00 +18°C° 0 mm 2 m/S 754 mmHg 50%
    20:00 +17°C° 0 mm 3 m/S 755 mmHg 53%
    21:00 +16°C° 0 mm 3 m/S 755 mmHg 57%
    22:00 +14°C° 0 mm 3 m/S 755 mmHg 61%
    23:00 +13°C° 0 mm 3 m/S 755 mmHg 64%

    25 August, Samstag

    Zeit Temperatur Niederschläge Wind Luftdruck Luftfeuchtigkeit
    00:00 +12°C° 0 mm 3 m/S 755 mmHg 68%
    01:00 +12°C° 0 mm 3 m/S 756 mmHg 71%
    02:00 +11°C° 0 mm 3 m/S 755 mmHg 74%
    03:00 +11°C° 0 mm 3 m/S 755 mmHg 76%
    04:00 +10°C° 0 mm 3 m/S 755 mmHg 79%
    05:00 +11°C° 0 mm 3 m/S 755 mmHg 76%
    06:00 +11°C° 0 mm 4 m/S 756 mmHg 74%
    07:00 +12°C° 0 mm 4 m/S 756 mmHg 71%
    08:00 +13°C° 0 mm 4 m/S 755 mmHg 63%
    09:00 +15°C° 0 mm 5 m/S 755 mmHg 56%
    10:00 +17°C° 0 mm 5 m/S 755 mmHg 48%
    11:00 +19°C° 0 mm 5 m/S 755 mmHg 45%
    12:00 +19°C° 0 mm 5 m/S 754 mmHg 42%
    13:00 +20°C° 0 mm 5 m/S 754 mmHg 38%
    14:00 +20°C° 0 mm 5 m/S 753 mmHg 39%
    15:00 +19°C° 0 mm 4 m/S 752 mmHg 40%
    16:00 +19°C° 0 mm 4 m/S 752 mmHg 41%
    17:00 +18°C° 0 mm 4 m/S 751 mmHg 44%
    18:00 +17°C° 0 mm 3 m/S 751 mmHg 47%
    19:00 +17°C° 0 mm 3 m/S 751 mmHg 49%
    20:00 +16°C° 0 mm 3 m/S 750 mmHg 50%
    21:00 +15°C° 0 mm 4 m/S 750 mmHg 51%
    22:00 +15°C° 0 mm 4 m/S 749 mmHg 52%
    23:00 +14°C° 0,2 mm 5 m/S 748 mmHg 58%
    Mehr zeigen